STARLINK-35732 (67037 NORAD) Tracking and Keplerian Element Data

This shows tracking and keplerian element data for the satellite.

Feedback or suggestion? Click here.




ElementValue
Catalog67037
NameSTARLINK-35732
Epoch Orbit143
Epoch Day354.25003472
Epoch Year2025
RAAN136.2603
Inclination42.9999
Eccentricity0.0001644
Argument of Perigee259.9773
Mean Anonmoly339.494
Mean Motion15.88780121
Decay Rate-0.01360276
L11 67037U 25294H 25354.25003472 -.01360276 00000+0 -52991-2 0 9991
L22 67037 42.9999 136.2603 0001644 259.9773 339.4940 15.88780121 1436



Live tracking and technical data element details for STARLINK-35732 (NORAD 67037). STARLINK-35732 can be tracked NOW for your location showing map with azimuth and elevation plus other details from your city location.







IsCatalogInMostPopularTable: catalog: 67037, numindb: 16
Update: records affected: 1



GetName: 67037 STARLINK-35732

Hit Count: updated at: Fri, 16 Jan 2026 08:56:46 GMT